This is the latest recevied weather packets stored in our database for station/object KD5UMO-1. If no packets are shown the sender has not sent any weather packets the latest 10 day(s).
| Time | Temp. | Humidity | Pressure | Rain* | Wind** | Luminosity | Snow |
|---|---|---|---|---|---|---|---|
| 1788139889 | 93° F | 40% | 760 mmHg | 0 in | - | 0 W/m² | - |
| 1788139584 | 93° F | 40% | 759.9 mmHg | 0 in | - | 0 W/m² | - |
| 1788139280 | 94° F | 40% | 759.9 mmHg | 0 in | - | 0 W/m² | - |
| 1788138978 | 94° F | 40% | 760 mmHg | 0 in | - | 0 W/m² | - |
| 1788138674 | 94° F | 40% | 759.9 mmHg | 0 in | - | 0 W/m² | - |
| 1788138370 | 94° F | 40% | 759.8 mmHg | 0 in | - | 1 W/m² | - |
| 1788138065 | 94° F | 40% | 759.8 mmHg | 0 in | - | 2 W/m² | - |
| 1788137760 | 95° F | 39% | 759.9 mmHg | 0 in | - | 3 W/m² | - |
| 1788137459 | 95° F | 39% | 759.7 mmHg | 0 in | - | 6 W/m² | - |
| 1788137155 | 95° F | 39% | 759.7 mmHg | 0 in | - | 10 W/m² | - |
| 1788136851 | 95° F | 39% | 759.7 mmHg | 0 in | - | 14 W/m² | - |
| 1788136548 | 95° F | 39% | 759.8 mmHg | 0 in | - | 18 W/m² | - |
| 1788136243 | 96° F | 38% | 759.7 mmHg | 0 in | - | 23 W/m² | - |
| 1788135941 | 96° F | 38% | 759.8 mmHg | 0 in | - | 28 W/m² | - |
| 1788135637 | 96° F | 38% | 759.8 mmHg | 0 in | - | 33 W/m² | - |
| 1788135332 | 96° F | 38% | 759.9 mmHg | 0 in | - | 38 W/m² | - |
| 1788135029 | 97° F | 37% | 759.8 mmHg | 0 in | - | 48 W/m² | - |
| 1788134725 | 97° F | 37% | 759.7 mmHg | 0 in | - | 56 W/m² | - |
| 1788134424 | 97° F | 37% | 759.8 mmHg | 0 in | - | 61 W/m² | - |
| 1788134123 | 97° F | 37% | 759.8 mmHg | 0 in | - | 70 W/m² | - |
| 1788133819 | 98° F | 37% | 760 mmHg | 0 in | - | 84 W/m² | - |
| 1788133514 | 99° F | 35% | 759.8 mmHg | 0 in | - | 90 W/m² | - |
| 1788133209 | 98° F | 36% | 759.8 mmHg | 0 in | - | 97 W/m² | - |
| 1788132904 | 99° F | 35% | 759.9 mmHg | 0 in | - | 120 W/m² | - |
| 1788132600 | 99° F | 36% | 760 mmHg | 0 in | - | 138 W/m² | - |
* Rain latest hour (hover to see other rain measurements)
** Current wind speed in m/s (hover to see current wind gust speed)